Simultaneous Nadir Overpasses (SNOs) Predictions

Prediction of SNOs between GOES-16 and AQUA Satellite Orbit:

Table of predicted SNOs for the next 14.0 days since TLE Epoch: 1/31/2020
Index Date Time (GOES-16) GOES-16 Lat,Lon AQUA Lat,Lon Distance(km) Time Diff (sec)
1 02/02/2020 18:35:18 -0.06, -75.20 0.06, -74.60 67.90 80
2 02/04/2020 18:20:27 -0.06, -75.21 0.69, -71.65 404.66 80
3 02/05/2020 06:44:22 0.07, -75.21 0.42, -76.80 181.25 80
4 02/07/2020 06:29:31 0.07, -75.21 -0.20, -73.84 155.74 80
5 02/07/2020 18:53:36 -0.08, -75.21 -0.87, -79.04 434.48 80
6 02/09/2020 06:17:20 0.08, -75.22 -0.84, -70.88 493.04 80
7 02/09/2020 18:41:25 -0.08, -75.22 -0.24, -76.08 97.00 80
8 02/11/2020 18:26:33 -0.08, -75.24 0.35, -73.11 241.20 80
9 02/12/2020 06:50:29 0.08, -75.25 0.72, -78.28 344.24 80
10 02/14/2020 06:38:18 0.08, -75.27 0.08, -75.32 5.53 80




NCC Satellite Simultaneous Nadir Overpasses (SNOs) Prediction Service
